CW4713 Weather Reports


Display with metric or nautical units.
time (UTC)temp
F
wind
direction
speed
MPH
gust
MPH
rain 1hr
in
rain 24hr
in
rain mn
in
humidity
%
barometer
mb
20260508165306 41 335 3.0 7.0 0.00 0.00 0.00 78 1009.1
20260508164804 41 349 4.0 7.0 0.00 0.00 0.00 78 1009.1
20260508164304 41 48 2.0 7.0 0.00 0.00 0.00 79 1009.1
20260508163804 41 348 2.0 5.0 0.00 0.00 0.00 79 1009.2
20260508163305 41 356 3.0 5.0 0.00 0.00 0.00 79 1009.2
20260508162805 41 334 2.0 6.0 0.00 0.00 0.00 79 1009.2
20260508162306 41 354 5.0 8.0 0.00 0.00 0.00 79 1009.3
20260508161804 40 0 4.0 8.0 0.00 0.00 0.00 80 1009.3
20260508161304 40 22 2.0 7.0 0.00 0.00 0.00 80 1009.3
20260508160804 40 347 3.0 8.0 0.00 0.00 0.00 80 1009.3
20260508160304 40 2 3.0 7.0 0.00 0.00 0.00 80 1009.3
20260508155804 40 63 1.0 7.0 0.00 0.00 0.00 81 1009.4
20260508155306 40 28 4.0 7.0 0.00 0.00 0.00 81 1009.4
20260508154804 40 37 3.0 7.0 0.00 0.00 0.00 81 1009.4
20260508154304 40 21 1.0 5.0 0.00 0.00 0.00 81 1009.5
20260508153804 39 51 3.0 5.0 0.00 0.00 0.00 81 1009.5
20260508153304 39 64 1.0 5.0 0.00 0.00 0.00 81 1009.6
20260508152804 39 34 3.0 6.0 0.00 0.00 0.00 81 1009.6
20260508152306 39 18 3.0 8.0 0.00 0.00 0.00 81 1009.7
20260508151804 39 25 3.0 7.0 0.00 0.00 0.00 82 1009.7
20260508151304 39 44 4.0 7.0 0.00 0.00 0.00 82 1009.7
20260508150805 39 16 2.0 6.0 0.00 0.00 0.00 82 1009.8
20260508150304 39 14 3.0 7.0 0.00 0.00 0.00 82 1009.8
20260508145805 39 27 3.0 7.0 0.00 0.00 0.00 82 1009.9
20260508145306 39 48 2.0 5.0 0.00 0.00 0.00 82 1009.9
20260508144803 39 28 3.0 7.0 0.00 0.00 0.00 82 1010.0
20260508144304 39 26 5.0 7.0 0.00 0.00 0.00 82 1010.0
20260508143804 39 9 4.0 7.0 0.00 0.00 0.00 82 1010.0
20260508143304 39 13 3.0 7.0 0.00 0.00 0.00 82 1010.0
20260508142804 39 37 3.0 6.0 0.00 0.00 0.00 82 1010.1
20260508142306 39 32 3.0 6.0 0.00 0.00 0.00 82 1010.1
20260508141804 39 28 3.0 6.0 0.00 0.00 0.00 82 1010.2
20260508141303 39 6 3.0 6.0 0.00 0.00 0.00 82 1010.3
20260508140804 39 19 3.0 6.0 0.00 0.00 0.00 82 1010.4
20260508140304 39 32 3.0 6.0 0.00 0.00 0.00 82 1010.5
20260508135804 39 6 2.0 5.0 0.00 0.00 0.00 82 1010.5
20260508135306 39 25 3.0 7.0 0.00 0.00 0.00 82 1010.5
20260508134804 39 39 4.0 7.0 0.00 0.00 0.00 82 1010.6
20260508134303 39 24 4.0 7.0 0.00 0.00 0.00 82 1010.6
20260508133804 39 28 6.0 8.0 0.00 0.00 0.00 82 1010.6
20260508133304 39 24 6.0 9.0 0.00 0.00 0.00 82 1010.7
20260508132804 39 25 5.0 8.0 0.00 0.00 0.00 82 1010.8
20260508132306 39 37 3.0 7.0 0.00 0.00 0.00 82 1010.8
20260508131804 39 44 4.0 8.0 0.00 0.00 0.00 82 1010.9
20260508131304 39 19 5.0 7.0 0.00 0.00 0.00 82 1010.9
20260508130804 39 40 4.0 7.0 0.00 0.00 0.00 82 1011.0
20260508130304 39 24 3.0 6.0 0.00 0.00 0.00 82 1011.0
20260508125804 38 54 2.0 5.0 0.00 0.00 0.00 82 1011.1
20260508125306 38 8 1.0 2.0 0.00 0.00 0.00 82 1011.2
20260508124804 38 18 1.0 3.0 0.00 0.00 0.00 82 1011.3
20260508124304 39 12 2.0 3.0 0.00 0.00 0.00 82 1011.3
20260508123804 39 25 2.0 3.0 0.00 0.00 0.00 82 1011.3
20260508123304 39 17 2.0 5.0 0.00 0.00 0.00 82 1011.4
20260508122804 39 59 3.0 5.0 0.00 0.00 0.00 82 1011.4
20260508122307 39 26 1.0 6.0 0.00 0.00 0.00 82 1011.5
20260508121803 39 39 2.0 5.0 0.00 0.00 0.00 81 1011.6
20260508121304 39 11 2.0 6.0 0.00 0.00 0.00 81 1011.6
20260508120804 39 5 1.0 3.0 0.00 0.00 0.00 81 1011.7
20260508120304 39 306 0.0 1.0 0.00 0.00 0.00 81 1011.8
20260508115804 39 320 0.0 1.0 0.00 0.00 0.00 81 1011.8
20260508115306 39 48 0.0 0.0 0.00 0.00 0.00 81 1011.9
20260508114804 39 48 0.0 0.0 0.00 0.00 0.00 81 1011.9
20260508114304 39 48 0.0 0.0 0.00 0.00 0.00 81 1012.0
20260508113804 39 48 0.0 1.0 0.00 0.00 0.00 81 1012.0
20260508113304 39 65 1.0 3.0 0.00 0.00 0.00 81 1012.1
20260508112804 39 43 3.0 6.0 0.00 0.00 0.00 81 1012.1
20260508112306 39 59 3.0 7.0 0.00 0.00 0.00 81 1012.2
20260508111804 39 71 2.0 5.0 0.00 0.00 0.00 81 1012.3
20260508111304 39 59 3.0 6.0 0.00 0.00 0.00 81 1012.4
20260508110804 39 241 0.0 0.0 0.00 0.00 0.00 81 1012.4
20260508110304 39 241 0.0 0.0 0.00 0.00 0.00 81 1012.4
20260508105804 39 241 0.0 1.0 0.00 0.00 0.00 81 1012.6
20260508105306 39 239 0.0 0.0 0.00 0.00 0.00 81 1012.6
20260508104805 39 240 0.0 1.0 0.00 0.00 0.00 81 1012.7
20260508104303 40 25 1.0 5.0 0.00 0.00 0.00 80 1012.7
20260508103804 40 32 2.0 6.0 0.00 0.00 0.00 81 1012.6
20260508103304 40 34 3.0 6.0 0.00 0.00 0.00 81 1012.6
20260508102804 40 2 5.0 8.0 0.00 0.00 0.00 81 1012.6
20260508102306 40 10 3.0 8.0 0.00 0.00 0.00 80 1012.6
20260508101804 40 37 3.0 6.0 0.00 0.00 0.00 80 1012.7
20260508101304 40 55 3.0 6.0 0.00 0.00 0.00 80 1012.7
20260508100804 40 23 5.0 7.0 0.00 0.00 0.00 79 1012.8
20260508100304 40 23 3.0 6.0 0.00 0.00 0.00 79 1012.8
20260508095804 40 44 4.0 7.0 0.00 0.00 0.00 79 1012.8
20260508095306 40 1 3.0 6.0 0.00 0.00 0.00 78 1012.8
20260508094805 40 342 0.0 3.0 0.00 0.00 0.00 78 1012.9
20260508094304 40 337 1.0 5.0 0.00 0.00 0.00 78 1012.8
20260508093803 40 3 1.0 5.0 0.00 0.00 0.00 77 1012.8
20260508093304 40 109 0.0 1.0 0.00 0.00 0.00 77 1012.8
20260508092804 40 120 0.0 1.0 0.00 0.00 0.00 77 1012.9
20260508092312 40 23 0.0 2.0 0.00 0.00 0.00 77 1013.0
20260508091804 40 358 3.0 5.0 0.00 0.00 0.00 76 1013.0
20260508091304 41 12 2.0 3.0 0.00 0.00 0.00 76 1013.0
20260508090804 41 345 1.0 2.0 0.00 0.00 0.00 76 1013.0
20260508090304 41 61 0.0 0.0 0.00 0.00 0.00 76 1013.1
20260508085804 41 61 0.0 0.0 0.00 0.00 0.00 76 1013.0
20260508085306 41 61 0.0 1.0 0.00 0.00 0.00 76 1013.1
20260508084804 41 17 0.0 3.0 0.00 0.00 0.00 75 1013.1
20260508074305 42 274 0.0 0.0 0.00 0.01 0.00 73 1013.5
20260508073804 42 296 2.0 3.0 0.00 0.01 0.00 73 1013.5
20260508073304 42 244 1.0 2.0 0.00 0.01 0.00 73 1013.5
20260508072804 42 244 1.0 2.0 0.00 0.01 0.00 73 1013.6
20260508072307 42 254 0.0 0.0 0.00 0.02 0.00 73 1013.6
20260508071804 42 254 1.0 1.0 0.00 0.02 0.00 72 1013.6
20260508071304 42 212 0.0 2.0 0.00 0.03 0.00 72 1013.7
20260508070804 43 212 2.0 5.0 0.00 0.03 0.00 72 1013.7
20260508070305 43 157 2.0 6.0 0.00 0.03 0.00 72 1013.8
20260508065804 43 172 3.0 6.0 0.00 0.04 0.00 72 1013.8
20260508065307 43 267 1.0 5.0 0.00 0.05 0.00 72 1013.8
20260508064804 43 309 1.0 6.0 0.00 0.05 0.00 72 1013.8
20260508064305 43 325 3.0 5.0 0.00 0.06 0.00 71 1013.7
20260508063804 43 336 2.0 3.0 0.00 0.06 0.00 71 1013.8
20260508063304 43 287 1.0 2.0 0.00 0.07 0.00 71 1013.8
20260508062804 43 305 0.0 1.0 0.00 0.07 0.00 71 1013.8
20260508062306 43 318 0.0 2.0 0.00 0.07 0.00 71 1013.8
20260508061804 43 4 1.0 2.0 0.00 0.08 0.00 71 1013.9
20260508061304 44 357 3.0 5.0 0.00 0.08 0.00 70 1013.8
20260508060804 44 23 2.0 3.0 0.00 0.09 0.00 70 1013.9
20260508060304 44 88 0.0 3.0 0.00 0.09 0.00 70 1013.9
20260508055803 44 108 1.0 2.0 0.00 0.09 0.00 70 1013.9
20260508055306 44 23 0.0 0.0 0.00 0.09 0.00 70 1013.9
20260508054804 44 23 0.0 3.0 0.00 0.09 0.00 70 1013.9
20260508054304 44 6 2.0 3.0 0.00 0.09 0.00 69 1013.9
20260508053804 45 6 2.0 5.0 0.00 0.10 0.00 69 1013.9
20260508053304 45 319 2.0 5.0 0.00 0.10 0.00 69 1013.9
20260508052804 45 350 3.0 3.0 0.00 0.10 0.00 69 1013.9
20260508052306 45 5 1.0 2.0 0.00 0.10 0.00 69 1013.9
20260508051804 45 116 1.0 5.0 0.00 0.10 0.00 68 1014.1
20260508051304 45 62 0.0 2.0 0.00 0.10 0.00 68 1014.0
20260508050804 45 287 1.0 5.0 0.00 0.10 0.00 68 1014.0
20260508050304 45 322 3.0 6.0 0.00 0.10 0.00 68 1013.9
20260508045803 45 319 3.0 5.0 0.00 0.10 0.00 69 1014.0
20260508045306 45 305 1.0 3.0 0.00 0.10 0.00 69 1014.0
20260508044804 45 334 3.0 6.0 0.00 0.10 0.00 69 1014.0
20260508044304 45 328 2.0 6.0 0.00 0.11 0.00 69 1014.1
20260508043804 45 340 3.0 5.0 0.00 0.12 0.00 69 1014.2
20260508043304 45 1 2.0 5.0 0.00 0.13 0.00 69 1014.2
20260508042804 45 339 2.0 5.0 0.00 0.14 0.00 69 1014.2
20260508021304 45 315 4.0 7.0 0.00 0.16 0.00 69 1015.4
20260508020804 45 327 5.0 7.0 0.00 0.16 0.00 69 1015.3
20260508020304 45 344 5.0 8.0 0.00 0.16 0.00 68 1015.4
20260508015805 45 348 4.0 8.0 0.00 0.16 0.00 68 1015.5
20260508015306 45 340 5.0 7.0 0.00 0.16 0.00 68 1015.5
20260508014804 45 343 6.0 7.0 0.00 0.16 0.00 68 1015.5
20260508014304 45 346 4.0 9.0 0.00 0.16 0.00 67 1015.4
20260508013804 45 336 6.0 9.0 0.00 0.16 0.00 67 1015.5
20260508013304 45 322 5.0 10.0 0.00 0.16 0.00 67 1015.5
20260508012804 45 347 6.0 10.0 0.00 0.16 0.00 67 1015.5
20260508012307 45 331 5.0 12.0 0.00 0.16 0.00 66 1015.6
20260508011804 45 326 5.0 9.0 0.00 0.16 0.00 66 1015.7
20260508011304 45 330 7.0 10.0 0.00 0.16 0.00 65 1015.3
20260508010804 45 331 7.0 10.0 0.00 0.16 0.00 65 1015.7
20260508010304 46 314 6.0 10.0 0.00 0.16 0.00 65 1015.7
20260508005804 46 313 5.0 9.0 0.00 0.16 0.00 65 1015.7
20260508005306 46 337 6.0 9.0 0.00 0.16 0.00 65 1015.7
20260508004804 46 353 7.0 9.0 0.00 0.16 0.00 65 1015.7
20260508004304 46 338 6.0 12.0 0.00 0.16 0.00 64 1015.8
20260508003803 46 343 7.0 10.0 0.00 0.16 0.00 64 1015.8
20260508003304 46 329 8.0 12.0 0.00 0.16 0.00 64 1015.9
20260508002804 46 331 5.0 9.0 0.00 0.16 0.00 65 1015.9
20260508002306 46 342 5.0 10.0 0.00 0.16 0.00 65 1016.0
20260508001804 46 338 7.0 12.0 0.00 0.16 0.00 65 1015.9
20260508001304 46 346 5.0 9.0 0.00 0.16 0.00 65 1016.1
20260508000805 46 0 7.0 12.0 0.00 0.16 0.00 65 1016.1
20260508000305 46 348 8.0 12.0 0.00 0.16 0.00 65 1016.1
20260507235804 46 345 7.0 12.0 0.00 0.16 0.00 65 1016.2
20260507235307 46 344 9.0 12.0 0.00 0.16 0.00 65 1016.2
20260507234804 46 3 5.0 10.0 0.00 0.16 0.00 65 1016.3
20260507234304 46 9 4.0 10.0 0.00 0.16 0.00 64 1016.3
20260507233804 46 5 5.0 10.0 0.00 0.16 0.00 64 1016.3
20260507233304 46 9 5.0 10.0 0.00 0.16 0.00 63 1016.4
20260507232804 46 37 6.0 10.0 0.00 0.16 0.00 63 1016.4
20260507232306 46 343 8.0 13.0 0.00 0.16 0.00 62 1016.3
20260507231804 47 2 8.0 10.0 0.00 0.16 0.00 61 1016.4
20260507231305 47 301 2.0 6.0 0.00 0.16 0.00 61 1016.4
20260507230804 47 338 5.0 8.0 0.00 0.16 0.00 60 1016.4
20260507220305 49 188 6.0 10.0 0.00 0.16 0.00 54 1016.6
20260507215804 49 137 4.0 7.0 0.00 0.16 0.00 55 1016.6
20260507215306 49 161 4.0 7.0 0.00 0.16 0.00 54 1016.6
20260507214804 49 166 4.0 10.0 0.00 0.16 0.00 56 1016.7
20260507214304 49 188 4.0 7.0 0.00 0.16 0.00 56 1016.7
20260507213804 49 168 4.0 8.0 0.00 0.16 0.00 56 1016.7
20260507213304 49 195 6.0 10.0 0.00 0.16 0.00 56 1016.7
20260507212804 48 227 7.0 13.0 0.00 0.16 0.00 55 1016.7
20260507212307 49 208 8.0 15.0 0.00 0.16 0.00 55 1016.7
20260507211805 49 241 5.0 8.0 0.00 0.16 0.00 57 1016.7
20260507211304 48 225 4.0 9.0 0.00 0.16 0.00 58 1016.7
20260507210804 48 219 3.0 10.0 0.00 0.16 0.00 56 1016.7
20260507210304 48 323 1.0 2.0 0.00 0.16 0.00 59 1016.7
20260507205805 48 232 1.0 6.0 0.00 0.16 0.00 59 1016.8
20260507205306 48 158 3.0 5.0 0.00 0.16 0.00 59 1016.8
20260507204804 48 151 5.0 7.0 0.00 0.16 0.00 59 1017.0
20260507204304 48 189 4.0 8.0 0.00 0.16 0.00 59 1017.0
20260507203804 48 123 6.0 13.0 0.00 0.16 0.00 58 1017.0
20260507203304 48 203 5.0 8.0 0.00 0.16 0.00 60 1017.1
20260507202804 48 216 6.0 9.0 0.00 0.16 0.00 60 1017.1
20260507202306 47 223 5.0 9.0 0.00 0.16 0.00 59 1017.1
20260507201804 47 206 4.0 10.0 0.00 0.16 0.00 59 1017.1
20260507201304 47 166 7.0 12.0 0.00 0.16 0.00 58 1017.1
20260507200803 47 188 6.0 13.0 0.00 0.16 0.00 59 1017.0
20260507200304 47 213 7.0 13.0 0.00 0.16 0.00 61 1017.1
20260507195804 47 187 6.0 12.0 0.00 0.16 0.00 62 1017.1
20260507195305 47 230 4.0 9.0 0.00 0.16 0.00 64 1017.2
20260507194804 47 184 5.0 8.0 0.00 0.16 0.00 68 1017.2
20260507194304 47 163 2.0 7.0 0.00 0.16 0.00 70 1017.2
20260507193805 46 112 0.0 1.0 0.00 0.16 0.00 70 1017.2
20260507193304 46 90 3.0 5.0 0.00 0.16 0.00 69 1017.2
20260507192804 46 66 2.0 3.0 0.00 0.16 0.00 69 1017.2
20260507192306 46 186 2.0 5.0 0.00 0.16 0.00 69 1017.2
20260507191804 46 183 3.0 6.0 0.00 0.16 0.00 69 1017.2
20260507191304 46 214 5.0 9.0 0.00 0.16 0.00 68 1017.3
20260507190804 45 223 7.0 13.0 0.00 0.16 0.00 68 1017.3
20260507190304 45 225 7.0 9.0 0.00 0.16 0.00 71 1017.3
20260507185804 45 224 6.0 9.0 0.00 0.16 0.00 73 1017.4
20260507185306 45 184 3.0 8.0 0.00 0.16 0.00 76 1017.4
20260507184804 45 240 2.0 5.0 0.00 0.16 0.00 77 1017.5
20260507174304 43 81 1.0 3.0 0.00 0.16 0.00 84 1017.4